Home   Weather   Wals-Siezenheim   Past weeks

Flag for Austria Past Weather in Wals-Siezenheim, Salzburg, Austria — Yesterday and Last 2 Weeks

Now
55 °F

Passing clouds.


Feels Like: 53 °F
Forecast: 53 / 61 °F
Wind: 9 mph from Southeast

Location: Salzburg-Flughafen

Current Time: Oct 1, 2016 at 3:42:09 AM

Latest Report: Oct 1, 2016 at 2:50 AM


Visibility: N/A

Pressure: 29.95 "Hg

Humidity: 77%

Dew Point: 48 °F

Location of Wals-SiezenheimLocation

Past Weather in Wals-Siezenheim — Graph

°F

Wals-Siezenheim Temperature Yesterday

Maximum temperature yesterday: 75 °F (at 1:20 PM)
Minimum temperature yesterday: 54 °F (at 5:20 AM)
Average temperature yesterday: 63 °F

High & Low Weather Summary for the Past Weeks

 TemperatureHumidityPressure
High75 °F (Sep 29, 1:50 PM)100% (Sep 16, 5:20 AM)30.42 "Hg (Sep 16, 5:20 AM)
Low41 °F (Sep 22, 4:20 AM)36% (Sep 30, 2:20 PM)29.86 "Hg (Sep 16, 6:50 PM)
Average57 °F82%30.13 "Hg
* Reported Sep 16 2:20 AM — Oct 1 2:20 AM, Wals-Siezenheim, Weather by CustomWeather, © 2016

Note: Actual official high and low records may vary slightly from our data, if they occured in-between our weather recording intervals... More about our weather records

Advertising

Wals-Siezenheim Weather History for the Previous 24 Hours

Scroll right to see more
 ConditionsComfort  
Time TempWeatherWind HumidityBarometerVisibility
2:20 AM
Sat, Oct 1
55 °FPassing clouds.8 mph77%29.98 "HgN/A
1:50 AM54 °FPassing clouds.6 mph82%29.98 "HgN/A
1:20 AM55 °FPassing clouds.5 mph77%30.01 "HgN/A
12:50 AM54 °FPassing clouds.3 mph82%30.01 "HgN/A
12:20 AM55 °FPassing clouds.6 mph77%30.01 "HgN/A
11:50 PM
Fri, Sep 30
55 °FCool.3 mph77%30.01 "HgN/A
11:20 PM55 °FCool.6 mph82%30.01 "HgN/A
10:50 PM55 °FPassing clouds.3 mph82%30.01 "HgN/A
10:20 PM57 °FPassing clouds.3 mph77%30.01 "HgN/A
9:50 PM59 °FPassing clouds.3 mph72%30.04 "HgN/A
9:20 PM59 °FPassing clouds.7 mph77%30.04 "HgN/A
8:50 PM59 °FPassing clouds.5 mph77%30.04 "HgN/A
8:20 PM61 °FPassing clouds.6 mph72%30.01 "HgN/A
7:50 PM63 °FPassing clouds.5 mph68%30.01 "HgN/A
7:20 PM66 °FPassing clouds.3 mph64%30.01 "HgN/A
6:50 PM66 °FPartly cloudy.1 mph64%30.01 "HgN/A
6:20 PM72 °FBroken clouds.2 mph41%30.01 "HgN/A
5:50 PM73 °FBroken clouds.6 mph38%29.98 "HgN/A
5:20 PM73 °FScattered clouds.6 mph38%29.98 "HgN/A
4:50 PM75 °FPassing clouds.5 mph39%29.98 "HgN/A
4:20 PM75 °FPassing clouds.5 mph36%30.01 "HgN/A
3:50 PM75 °FPassing clouds.5 mph39%30.01 "HgN/A
3:20 PM75 °FPassing clouds.5 mph39%30.01 "HgN/A
2:50 PM75 °FPassing clouds.6 mph39%30.04 "HgN/A
2:20 PM75 °FPassing clouds.3 mph36%30.04 "HgN/A
1:50 PM75 °FPassing clouds.2 mph39%30.04 "HgN/A
1:20 PM75 °FPassing clouds.6 mph41%30.07 "HgN/A
12:50 PM73 °FPassing clouds.3 mph47%30.07 "HgN/A
12:20 PM72 °FPassing clouds.6 mph47%30.07 "HgN/A
11:50 AM70 °FPassing clouds.6 mph53%30.07 "HgN/A
11:20 AM68 °FPassing clouds.6 mph53%30.09 "HgN/A
10:50 AM66 °FSunny.9 mph60%30.09 "Hg10 mi
10:20 AM64 °FSunny.10 mph64%30.09 "Hg10 mi
9:50 AM61 °FSunny.10 mph68%30.09 "Hg10 mi
9:20 AM59 °FPassing clouds.10 mph68%30.09 "HgN/A
8:50 AM57 °FSunny.10 mph72%30.09 "Hg10 mi
8:20 AM57 °FSunny.13 mph72%30.09 "Hg10 mi
7:50 AM55 °FSunny.12 mph77%30.09 "Hg10 mi
7:20 AM54 °FSunny.10 mph77%30.09 "Hg10 mi
6:50 AM54 °FClear.9 mph82%30.09 "Hg10 mi
6:20 AM54 °FClear.9 mph82%30.09 "Hg10 mi
5:50 AM54 °FClear.12 mph82%30.09 "Hg10 mi
5:20 AM54 °FCool.9 mph82%30.09 "HgN/A
4:50 AM55 °FCool.9 mph77%30.09 "HgN/A
4:20 AM55 °FPassing clouds.10 mph77%30.09 "HgN/A
3:50 AM55 °FCool.10 mph77%30.09 "HgN/A
3:20 AM57 °FCool.10 mph72%30.12 "HgN/A
Weather by CustomWeather, © 2016

See weather overviewHow to use our weather pages